owner,sensor,date,latitude,longitude,vertical_datum,wind_speed,wind_to_direction,wind_speed_of_gust,qcFlag 
NOS,ioos:station:wmo:bzst2:1,2017-12-01T00:00:00Z,26.0670,-97.1550,15.0,7.1,63.0,8.3,'11111222,11111222,11111222' 
NOS,ioos:station:wmo:bzst2:1,2017-12-01T00:06:00Z,26.0670,-97.1550,15.0,7.3,67.0,8.1,'11111222,11111222,11111222' 
NOS,ioos:station:wmo:bzst2:1,2017-12-01T00:12:00Z,26.0670,-97.1550,15.0,7.0,66.0,8.0,'11111222,11111222,11111222' 
NOS,ioos:station:wmo:bzst2:1,2017-12-01T00:18:00Z,26.0670,-97.1550,15.0,7.0,69.0,7.8,'11111222,11111222,11111222' 
NOS,ioos:station:wmo:bzst2:1,2017-12-01T00:24:00Z,26.0670,-97.1550,15.0,7.4,70.0,8.1,'11111222,11111222,11111222' 
NOS,ioos:station:wmo:bzst2:1,2017-12-01T00:30:00Z,26.0670,-97.1550,15.0,6.8,71.0,8.0,'11111222,11111222,11111222' 
NOS,ioos:station:wmo:bzst2:1,2017-12-01T00:36:00Z,26.0670,-97.1550,15.0,7.3,68.0,7.9,'11111222,11111222,11111222' 
NOS,ioos:station:wmo:bzst2:1,2017-12-01T00:42:00Z,26.0670,-97.1550,15.0,7.1,68.0,8.2,'11111222,11111222,11111222' 
NOS,ioos:station:wmo:bzst2:1,2017-12-01T00:48:00Z,26.0670,-97.1550,15.0,7.3,75.0,8.1,'11111222,11111222,11111222' 
NOS,ioos:station:wmo:bzst2:1,2017-12-01T00:54:00Z,26.0670,-97.1550,15.0,6.9,75.0,7.9,'11111222,11111222,11111222' 
NOS,ioos:station:wmo:bzst2:1,2017-12-01T01:00:00Z,26.0670,-97.1550,15.0,7.7,69.0,8.4,'11111222,11111222,11111222' 
NOS,ioos:station:wmo:bzst2:1,2017-12-01T01:06:00Z,26.0670,-97.1550,15.0,7.6,71.0,8.7,'11111222,11111222,11111222' 
NOS,ioos:station:wmo:bzst2:1,2017-12-01T01:12:00Z,26.0670,-97.1550,15.0,7.9,67.0,8.6,'11111222,11111222,11111222' 
NOS,ioos:station:wmo:bzst2:1,2017-12-01T01:18:00Z,26.0670,-97.1550,15.0,7.6,70.0,8.6,'11111222,11111222,11111222' 
NOS,ioos:station:wmo:bzst2:1,2017-12-01T01:24:00Z,26.0670,-97.1550,15.0,7.0,67.0,8.2,'11111222,11111222,11111222' 
NOS,ioos:station:wmo:bzst2:1,2017-12-01T01:30:00Z,26.0670,-97.1550,15.0,7.1,65.0,7.8,'11111222,11111222,11111222' 
NOS,ioos:station:wmo:bzst2:1,2017-12-01T01:36:00Z,26.0670,-97.1550,15.0,7.5,67.0,8.2,'11111222,11111222,11111222' 
NOS,ioos:station:wmo:bzst2:1,2017-12-01T01:42:00Z,26.0670,-97.1550,15.0,7.0,69.0,8.1,'11111222,11111222,11111222' 
NOS,ioos:station:wmo:bzst2:1,2017-12-01T01:48:00Z,26.0670,-97.1550,15.0,7.2,67.0,7.9,'11111222,11111222,11111222' 
NOS,ioos:station:wmo:bzst2:1,2017-12-01T01:54:00Z,26.0670,-97.1550,15.0,7.6,63.0,8.5,'11111222,11111222,11111222' 
NOS,ioos:station:wmo:bzst2:1,2017-12-01T02:00:00Z,26.0670,-97.1550,15.0,7.5,62.0,8.3,'11111222,11111222,11111222' 
NOS,ioos:station:wmo:bzst2:1,2017-12-01T02:06:00Z,26.0670,-97.1550,15.0,7.4,70.0,8.2,'11111222,11111222,11111222' 
NOS,ioos:station:wmo:bzst2:1,2017-12-01T02:12:00Z,26.0670,-97.1550,15.0,7.6,70.0,8.5,'11111222,11111222,11111222' 
NOS,ioos:station:wmo:bzst2:1,2017-12-01T02:18:00Z,26.0670,-97.1550,15.0,7.3,70.0,8.3,'11111222,11111222,11111222' 
NOS,ioos:station:wmo:bzst2:1,2017-12-01T02:24:00Z,26.0670,-97.1550,15.0,6.3,74.0,8.5,'11111222,11111222,11111222' 
NOS,ioos:station:wmo:bzst2:1,2017-12-01T02:30:00Z,26.0670,-97.1550,15.0,7.4,74.0,8.1,'11111222,11111222,11111222' 
NOS,ioos:station:wmo:bzst2:1,2017-12-01T02:36:00Z,26.0670,-97.1550,15.0,7.8,68.0,8.4,'11111222,11111222,11111222' 
NOS,ioos:station:wmo:bzst2:1,2017-12-01T02:42:00Z,26.0670,-97.1550,15.0,8.0,66.0,8.9,'11111222,11111222,11111222' 
NOS,ioos:station:wmo:bzst2:1,2017-12-01T02:48:00Z,26.0670,-97.1550,15.0,8.3,63.0,8.9,'11111222,11111222,11111222' 
NOS,ioos:station:wmo:bzst2:1,2017-12-01T02:54:00Z,26.0670,-97.1550,15.0,7.3,65.0,8.9,'11111222,11111222,11111222' 
NOS,ioos:station:wmo:bzst2:1,2017-12-01T03:00:00Z,26.0670,-97.1550,15.0,7.3,69.0,8.2,'11111222,11111222,11111222' 
NOS,ioos:station:wmo:bzst2:1,2017-12-01T03:06:00Z,26.0670,-97.1550,15.0,7.2,71.0,8.1,'11111222,11111222,11111222' 
NOS,ioos:station:wmo:bzst2:1,2017-12-01T03:12:00Z,26.0670,-97.1550,15.0,7.0,67.0,8.2,'11111222,11111222,11111222' 
NOS,ioos:station:wmo:bzst2:1,2017-12-01T03:18:00Z,26.0670,-97.1550,15.0,6.7,71.0,7.7,'11111222,11111222,11111222' 
NOS,ioos:station:wmo:bzst2:1,2017-12-01T03:24:00Z,26.0670,-97.1550,15.0,7.3,71.0,8.5,'11111222,11111222,11111222' 
NOS,ioos:station:wmo:bzst2:1,2017-12-01T03:30:00Z,26.0670,-97.1550,15.0,7.2,67.0,8.3,'11111222,11111222,11111222' 
NOS,ioos:station:wmo:bzst2:1,2017-12-01T03:36:00Z,26.0670,-97.1550,15.0,7.1,69.0,8.6,'11111222,11111222,11111222' 
NOS,ioos:station:wmo:bzst2:1,2017-12-01T03:42:00Z,26.0670,-97.1550,15.0,7.5,66.0,7.9,'11111222,11111222,11111222' 
NOS,ioos:station:wmo:bzst2:1,2017-12-01T03:48:00Z,26.0670,-97.1550,15.0,7.0,68.0,7.9,'11111222,11111222,11111222' 
NOS,ioos:station:wmo:bzst2:1,2017-12-01T03:54:00Z,26.0670,-97.1550,15.0,7.5,71.0,8.1,'11111222,11111222,11111222' 
NOS,ioos:station:wmo:bzst2:1,2017-12-01T04:00:00Z,26.0670,-97.1550,15.0,6.8,69.0,7.9,'11111222,11111222,11111222' 
NOS,ioos:station:wmo:bzst2:1,2017-12-01T04:06:00Z,26.0670,-97.1550,15.0,7.1,70.0,8.0,'11111222,11111222,11111222' 
NOS,ioos:station:wmo:bzst2:1,2017-12-01T04:12:00Z,26.0670,-97.1550,15.0,7.0,72.0,7.9,'11111222,11111222,11111222' 
NOS,ioos:station:wmo:bzst2:1,2017-12-01T04:18:00Z,26.0670,-97.1550,15.0,6.8,70.0,8.0,'11111222,11111222,11111222' 
NOS,ioos:station:wmo:bzst2:1,2017-12-01T04:24:00Z,26.0670,-97.1550,15.0,7.0,72.0,7.6,'11111222,11111222,11111222' 
NOS,ioos:station:wmo:bzst2:1,2017-12-01T04:30:00Z,26.0670,-97.1550,15.0,7.0,71.0,7.7,'11111222,11111222,11111222' 
NOS,ioos:station:wmo:bzst2:1,2017-12-01T04:36:00Z,26.0670,-97.1550,15.0,6.9,69.0,7.9,'11111222,11111222,11111222' 
NOS,ioos:station:wmo:bzst2:1,2017-12-01T04:42:00Z,26.0670,-97.1550,15.0,6.5,74.0,7.4,'11111222,11111222,11111222' 
NOS,ioos:station:wmo:bzst2:1,2017-12-01T04:48:00Z,26.0670,-97.1550,15.0,6.5,71.0,7.4,'11111222,11111222,11111222' 
NOS,ioos:station:wmo:bzst2:1,2017-12-01T04:54:00Z,26.0670,-97.1550,15.0,7.0,69.0,7.7,'11111222,11111222,11111222' 
NOS,ioos:station:wmo:bzst2:1,2017-12-01T05:00:00Z,26.0670,-97.1550,15.0,6.3,75.0,7.2,'11111222,11111222,11111222' 
NOS,ioos:station:wmo:bzst2:1,2017-12-01T05:06:00Z,26.0670,-97.1550,15.0,6.7,70.0,7.3,'11111222,11111222,11111222' 
NOS,ioos:station:wmo:bzst2:1,2017-12-01T05:12:00Z,26.0670,-97.1550,15.0,5.7,70.0,7.0,'11111222,11111222,11111222' 
NOS,ioos:station:wmo:bzst2:1,2017-12-01T05:18:00Z,26.0670,-97.1550,15.0,5.6,72.0,6.8,'11111222,11111222,11111222' 
NOS,ioos:station:wmo:bzst2:1,2017-12-01T05:24:00Z,26.0670,-97.1550,15.0,6.0,67.0,7.1,'11111222,11111222,11111222' 
NOS,ioos:station:wmo:bzst2:1,2017-12-01T05:30:00Z,26.0670,-97.1550,15.0,5.2,70.0,6.5,'11111222,11111222,11111222' 
NOS,ioos:station:wmo:bzst2:1,2017-12-01T05:36:00Z,26.0670,-97.1550,15.0,6.7,65.0,7.2,'11111222,11111222,11111222' 
NOS,ioos:station:wmo:bzst2:1,2017-12-01T05:42:00Z,26.0670,-97.1550,15.0,5.9,70.0,7.1,'11111222,11111222,11111222' 
NOS,ioos:station:wmo:bzst2:1,2017-12-01T05:48:00Z,26.0670,-97.1550,15.0,6.2,65.0,7.0,'11111222,11111222,11111222' 
NOS,ioos:station:wmo:bzst2:1,2017-12-01T05:54:00Z,26.0670,-97.1550,15.0,6.5,67.0,7.1,'11111222,11111222,11111222' 
NOS,ioos:station:wmo:bzst2:1,2017-12-01T06:00:00Z,26.0670,-97.1550,15.0,5.3,69.0,7.1,'11111222,11111222,11111222' 
NOS,ioos:station:wmo:bzst2:1,2017-12-01T06:06:00Z,26.0670,-97.1550,15.0,5.7,66.0,6.9,'11111222,11111222,11111222' 
NOS,ioos:station:wmo:bzst2:1,2017-12-01T06:12:00Z,26.0670,-97.1550,15.0,5.2,70.0,6.3,'11111222,11111222,11111222' 
NOS,ioos:station:wmo:bzst2:1,2017-12-01T06:18:00Z,26.0670,-97.1550,15.0,5.2,78.0,5.9,'11111222,11111222,11111222' 
NOS,ioos:station:wmo:bzst2:1,2017-12-01T06:24:00Z,26.0670,-97.1550,15.0,5.8,73.0,6.3,'11111222,11111222,11111222' 
NOS,ioos:station:wmo:bzst2:1,2017-12-01T06:30:00Z,26.0670,-97.1550,15.0,5.6,76.0,6.3,'11111222,11111222,11111222' 
NOS,ioos:station:wmo:bzst2:1,2017-12-01T06:36:00Z,26.0670,-97.1550,15.0,4.8,79.0,6.0,'11111222,11111222,11111222' 
NOS,ioos:station:wmo:bzst2:1,2017-12-01T06:42:00Z,26.0670,-97.1550,15.0,5.5,78.0,6.3,'11111222,11111222,11111222' 
NOS,ioos:station:wmo:bzst2:1,2017-12-01T06:48:00Z,26.0670,-97.1550,15.0,5.6,81.0,6.5,'11111222,11111222,11111222' 
NOS,ioos:station:wmo:bzst2:1,2017-12-01T06:54:00Z,26.0670,-97.1550,15.0,5.4,78.0,5.9,'11111222,11111222,11111222' 
NOS,ioos:station:wmo:bzst2:1,2017-12-01T07:00:00Z,26.0670,-97.1550,15.0,5.5,68.0,6.1,'11111222,11111222,11111222' 
NOS,ioos:station:wmo:bzst2:1,2017-12-01T07:06:00Z,26.0670,-97.1550,15.0,5.1,66.0,5.8,'11111222,11111222,11111222' 
NOS,ioos:station:wmo:bzst2:1,2017-12-01T07:12:00Z,26.0670,-97.1550,15.0,5.2,73.0,5.9,'11111222,11111222,11111222' 
NOS,ioos:station:wmo:bzst2:1,2017-12-01T07:18:00Z,26.0670,-97.1550,15.0,5.3,74.0,6.0,'11111222,11111222,11111222' 
NOS,ioos:station:wmo:bzst2:1,2017-12-01T07:24:00Z,26.0670,-97.1550,15.0,5.3,72.0,5.9,'11111222,11111222,11111222' 
NOS,ioos:station:wmo:bzst2:1,2017-12-01T07:30:00Z,26.0670,-97.1550,15.0,5.3,78.0,6.0,'11111222,11111222,11111222' 
NOS,ioos:station:wmo:bzst2:1,2017-12-01T07:36:00Z,26.0670,-97.1550,15.0,5.2,75.0,6.1,'11111222,11111222,11111222' 
NOS,ioos:station:wmo:bzst2:1,2017-12-01T07:42:00Z,26.0670,-97.1550,15.0,5.3,71.0,6.0,'11111222,11111222,11111222' 
NOS,ioos:station:wmo:bzst2:1,2017-12-01T07:48:00Z,26.0670,-97.1550,15.0,5.3,77.0,6.1,'11111222,11111222,11111222' 
NOS,ioos:station:wmo:bzst2:1,2017-12-01T07:54:00Z,26.0670,-97.1550,15.0,5.0,78.0,5.9,'11111222,11111222,11111222' 
NOS,ioos:station:wmo:bzst2:1,2017-12-01T08:00:00Z,26.0670,-97.1550,15.0,4.6,81.0,5.9,'11111222,11111222,11111222' 
NOS,ioos:station:wmo:bzst2:1,2017-12-01T08:06:00Z,26.0670,-97.1550,15.0,5.6,69.0,6.0,'11111222,11111222,11111222' 
NOS,ioos:station:wmo:bzst2:1,2017-12-01T08:12:00Z,26.0670,-97.1550,15.0,4.9,79.0,5.7,'11111222,11111222,11111222' 
NOS,ioos:station:wmo:bzst2:1,2017-12-01T08:18:00Z,26.0670,-97.1550,15.0,5.5,71.0,6.4,'11111222,11111222,11111222' 
NOS,ioos:station:wmo:bzst2:1,2017-12-01T08:30:00Z,26.0670,-97.1550,15.0,4.7,81.0,6.0,'11111222,11111222,11111222' 
NOS,ioos:station:wmo:bzst2:1,2017-12-01T08:36:00Z,26.0670,-97.1550,15.0,4.5,86.0,5.8,'11111222,11111222,11111222' 
NOS,ioos:station:wmo:bzst2:1,2017-12-01T08:42:00Z,26.0670,-97.1550,15.0,4.0,83.0,5.4,'11111222,11111222,11111222' 
NOS,ioos:station:wmo:bzst2:1,2017-12-01T08:48:00Z,26.0670,-97.1550,15.0,4.2,91.0,5.3,'11111222,11111222,11111222' 
NOS,ioos:station:wmo:bzst2:1,2017-12-01T08:54:00Z,26.0670,-97.1550,15.0,4.7,79.0,5.5,'11111222,11111222,11111222' 
NOS,ioos:station:wmo:bzst2:1,2017-12-01T09:00:00Z,26.0670,-97.1550,15.0,4.8,72.0,5.6,'11111222,11111222,11111222' 
NOS,ioos:station:wmo:bzst2:1,2017-12-01T09:06:00Z,26.0670,-97.1550,15.0,4.7,81.0,5.5,'11111222,11111222,11111222' 
NOS,ioos:station:wmo:bzst2:1,2017-12-01T09:12:00Z,26.0670,-97.1550,15.0,4.2,79.0,5.4,'11111222,11111222,11111222' 
NOS,ioos:station:wmo:bzst2:1,2017-12-01T09:18:00Z,26.0670,-97.1550,15.0,3.4,84.0,4.9,'11111222,11111222,11111222' 
NOS,ioos:station:wmo:bzst2:1,2017-12-01T09:24:00Z,26.0670,-97.1550,15.0,3.7,82.0,4.4,'11111222,11111222,11111222' 
NOS,ioos:station:wmo:bzst2:1,2017-12-01T09:30:00Z,26.0670,-97.1550,15.0,3.9,81.0,4.8,'11111222,11111222,11111222' 
NOS,ioos:station:wmo:bzst2:1,2017-12-01T09:36:00Z,26.0670,-97.1550,15.0,4.0,77.0,4.7,'11111222,11111222,11111222' 
NOS,ioos:station:wmo:bzst2:1,2017-12-01T09:42:00Z,26.0670,-97.1550,15.0,4.1,80.0,4.7,'11111222,11111222,11111222' 
NOS,ioos:station:wmo:bzst2:1,2017-12-01T09:48:00Z,26.0670,-97.1550,15.0,3.0,88.0,3.8,'11111222,11111222,11111222' 
NOS,ioos:station:wmo:bzst2:1,2017-12-01T09:54:00Z,26.0670,-97.1550,15.0,3.4,88.0,4.2,'11111222,11111222,11111222' 
NOS,ioos:station:wmo:bzst2:1,2017-12-01T10:00:00Z,26.0670,-97.1550,15.0,3.7,85.0,4.2,'11111222,11111222,11111222' 
NOS,ioos:station:wmo:bzst2:1,2017-12-01T10:06:00Z,26.0670,-97.1550,15.0,3.4,84.0,4.1,'11111222,11111222,11111222' 
NOS,ioos:station:wmo:bzst2:1,2017-12-01T10:12:00Z,26.0670,-97.1550,15.0,3.7,72.0,4.4,'11111222,11111222,11111222' 
NOS,ioos:station:wmo:bzst2:1,2017-12-01T10:18:00Z,26.0670,-97.1550,15.0,4.2,69.0,5.3,'11111222,11111222,11111222' 
NOS,ioos:station:wmo:bzst2:1,2017-12-01T10:24:00Z,26.0670,-97.1550,15.0,4.4,78.0,4.7,'11111222,11111222,11111222' 
NOS,ioos:station:wmo:bzst2:1,2017-12-01T10:30:00Z,26.0670,-97.1550,15.0,3.7,74.0,4.8,'11111222,11111222,11111222' 
NOS,ioos:station:wmo:bzst2:1,2017-12-01T10:36:00Z,26.0670,-97.1550,15.0,3.8,74.0,4.2,'11111222,11111222,11111222' 
NOS,ioos:station:wmo:bzst2:1,2017-12-01T10:42:00Z,26.0670,-97.1550,15.0,4.4,73.0,4.8,'11111222,11111222,11111222' 
NOS,ioos:station:wmo:bzst2:1,2017-12-01T10:48:00Z,26.0670,-97.1550,15.0,3.3,86.0,4.3,'11111222,11111222,11111222' 
NOS,ioos:station:wmo:bzst2:1,2017-12-01T10:54:00Z,26.0670,-97.1550,15.0,3.7,83.0,4.5,'11111222,11111222,11111222' 
NOS,ioos:station:wmo:bzst2:1,2017-12-01T11:00:00Z,26.0670,-97.1550,15.0,3.7,79.0,4.2,'11111222,11111222,11111222' 
NOS,ioos:station:wmo:bzst2:1,2017-12-01T11:06:00Z,26.0670,-97.1550,15.0,3.6,81.0,3.8,'11111222,11111222,11111222' 
NOS,ioos:station:wmo:bzst2:1,2017-12-01T11:12:00Z,26.0670,-97.1550,15.0,4.2,73.0,4.6,'11111222,11111222,11111222' 
NOS,ioos:station:wmo:bzst2:1,2017-12-01T11:18:00Z,26.0670,-97.1550,15.0,3.9,77.0,4.6,'11111222,11111222,11111222' 
NOS,ioos:station:wmo:bzst2:1,2017-12-01T11:24:00Z,26.0670,-97.1550,15.0,3.8,83.0,4.4,'11111222,11111222,11111222' 
NOS,ioos:station:wmo:bzst2:1,2017-12-01T11:30:00Z,26.0670,-97.1550,15.0,4.1,67.0,4.6,'11111222,11111222,11111222' 
NOS,ioos:station:wmo:bzst2:1,2017-12-01T11:36:00Z,26.0670,-97.1550,15.0,3.9,69.0,4.5,'11111222,11111222,11111222' 
NOS,ioos:station:wmo:bzst2:1,2017-12-01T11:42:00Z,26.0670,-97.1550,15.0,3.7,61.0,4.4,'11111222,11111222,11111222' 
NOS,ioos:station:wmo:bzst2:1,2017-12-01T11:48:00Z,26.0670,-97.1550,15.0,4.3,64.0,4.8,'11111222,11111222,11111222' 
NOS,ioos:station:wmo:bzst2:1,2017-12-01T11:54:00Z,26.0670,-97.1550,15.0,3.8,70.0,4.6,'11111222,11111222,11111222' 
NOS,ioos:station:wmo:bzst2:1,2017-12-01T12:00:00Z,26.0670,-97.1550,15.0,4.3,74.0,4.6,'11111222,11111222,11111222' 
NOS,ioos:station:wmo:bzst2:1,2017-12-01T12:06:00Z,26.0670,-97.1550,15.0,4.4,67.0,4.7,'11111222,11111222,11111222' 
NOS,ioos:station:wmo:bzst2:1,2017-12-01T12:12:00Z,26.0670,-97.1550,15.0,4.4,62.0,5.3,'11111222,11111222,11111222' 
NOS,ioos:station:wmo:bzst2:1,2017-12-01T12:18:00Z,26.0670,-97.1550,15.0,4.1,62.0,4.8,'11111222,11111222,11111222' 
NOS,ioos:station:wmo:bzst2:1,2017-12-01T12:24:00Z,26.0670,-97.1550,15.0,4.3,61.0,5.3,'11111222,11111222,11111222' 
NOS,ioos:station:wmo:bzst2:1,2017-12-01T12:30:00Z,26.0670,-97.1550,15.0,4.7,61.0,5.3,'11111222,11111222,11111222' 
NOS,ioos:station:wmo:bzst2:1,2017-12-01T12:36:00Z,26.0670,-97.1550,15.0,4.9,57.0,5.3,'11111222,11111222,11111222' 
NOS,ioos:station:wmo:bzst2:1,2017-12-01T12:42:00Z,26.0670,-97.1550,15.0,4.3,54.0,5.2,'11111222,11111222,11111222' 
NOS,ioos:station:wmo:bzst2:1,2017-12-01T12:48:00Z,26.0670,-97.1550,15.0,4.6,54.0,5.0,'11111222,11111222,11111222' 
NOS,ioos:station:wmo:bzst2:1,2017-12-01T12:54:00Z,26.0670,-97.1550,15.0,4.4,57.0,4.9,'11111222,11111222,11111222' 
NOS,ioos:station:wmo:bzst2:1,2017-12-01T13:00:00Z,26.0670,-97.1550,15.0,4.8,55.0,5.2,'11111222,11111222,11111222' 
NOS,ioos:station:wmo:bzst2:1,2017-12-01T13:06:00Z,26.0670,-97.1550,15.0,4.9,54.0,5.4,'11111222,11111222,11111222' 
NOS,ioos:station:wmo:bzst2:1,2017-12-01T13:12:00Z,26.0670,-97.1550,15.0,5.0,61.0,5.5,'11111222,11111222,11111222' 
NOS,ioos:station:wmo:bzst2:1,2017-12-01T13:18:00Z,26.0670,-97.1550,15.0,5.1,60.0,5.7,'11111222,11111222,11111222' 
NOS,ioos:station:wmo:bzst2:1,2017-12-01T13:24:00Z,26.0670,-97.1550,15.0,4.4,58.0,5.0,'11111222,11111222,11111222' 
NOS,ioos:station:wmo:bzst2:1,2017-12-01T13:30:00Z,26.0670,-97.1550,15.0,4.7,56.0,5.3,'11111222,11111222,11111222' 
NOS,ioos:station:wmo:bzst2:1,2017-12-01T13:36:00Z,26.0670,-97.1550,15.0,4.3,57.0,5.2,'11111222,11111222,11111222' 
NOS,ioos:station:wmo:bzst2:1,2017-12-01T13:42:00Z,26.0670,-97.1550,15.0,4.6,57.0,5.2,'11111222,11111222,11111222' 
NOS,ioos:station:wmo:bzst2:1,2017-12-01T13:48:00Z,26.0670,-97.1550,15.0,4.4,60.0,5.1,'11111222,11111222,11111222' 
NOS,ioos:station:wmo:bzst2:1,2017-12-01T13:54:00Z,26.0670,-97.1550,15.0,4.0,59.0,4.6,'11111222,11111222,11111222' 
NOS,ioos:station:wmo:bzst2:1,2017-12-01T14:00:00Z,26.0670,-97.1550,15.0,4.2,59.0,4.9,'11111222,11111222,11111222' 
NOS,ioos:station:wmo:bzst2:1,2017-12-01T14:06:00Z,26.0670,-97.1550,15.0,4.2,53.0,4.9,'11111222,11111222,11111222' 
NOS,ioos:station:wmo:bzst2:1,2017-12-01T14:12:00Z,26.0670,-97.1550,15.0,4.5,53.0,5.0,'11111222,11111222,11111222' 
NOS,ioos:station:wmo:bzst2:1,2017-12-01T14:18:00Z,26.0670,-97.1550,15.0,4.4,53.0,5.1,'11111222,11111222,11111222' 
NOS,ioos:station:wmo:bzst2:1,2017-12-01T14:24:00Z,26.0670,-97.1550,15.0,4.5,56.0,5.0,'11111222,11111222,11111222' 
NOS,ioos:station:wmo:bzst2:1,2017-12-01T14:30:00Z,26.0670,-97.1550,15.0,5.1,47.0,5.6,'11111222,11111222,11111222' 
NOS,ioos:station:wmo:bzst2:1,2017-12-01T14:36:00Z,26.0670,-97.1550,15.0,4.6,51.0,6.0,'11111222,11111222,11111222' 
NOS,ioos:station:wmo:bzst2:1,2017-12-01T14:42:00Z,26.0670,-97.1550,15.0,5.1,50.0,5.5,'11111222,11111222,11111222' 
NOS,ioos:station:wmo:bzst2:1,2017-12-01T14:48:00Z,26.0670,-97.1550,15.0,5.2,50.0,5.7,'11111222,11111222,11111222' 
NOS,ioos:station:wmo:bzst2:1,2017-12-01T14:54:00Z,26.0670,-97.1550,15.0,4.9,52.0,5.4,'11111222,11111222,11111222' 
NOS,ioos:station:wmo:bzst2:1,2017-12-01T15:00:00Z,26.0670,-97.1550,15.0,4.1,57.0,5.1,'11111222,11111222,11111222' 
NOS,ioos:station:wmo:bzst2:1,2017-12-01T15:06:00Z,26.0670,-97.1550,15.0,4.6,54.0,5.1,'11111222,11111222,11111222' 
NOS,ioos:station:wmo:bzst2:1,2017-12-01T15:12:00Z,26.0670,-97.1550,15.0,4.3,54.0,5.0,'11111222,11111222,11111222' 
NOS,ioos:station:wmo:bzst2:1,2017-12-01T15:18:00Z,26.0670,-97.1550,15.0,4.4,54.0,5.0,'11111222,11111222,11111222' 
NOS,ioos:station:wmo:bzst2:1,2017-12-01T15:24:00Z,26.0670,-97.1550,15.0,3.8,59.0,4.4,'11111222,11111222,11111222' 
NOS,ioos:station:wmo:bzst2:1,2017-12-01T15:30:00Z,26.0670,-97.1550,15.0,3.5,56.0,4.3,'11111222,11111222,11111222' 
NOS,ioos:station:wmo:bzst2:1,2017-12-01T15:36:00Z,26.0670,-97.1550,15.0,3.6,57.0,4.2,'11111222,11111222,11111222' 
NOS,ioos:station:wmo:bzst2:1,2017-12-01T15:42:00Z,26.0670,-97.1550,15.0,3.6,55.0,4.3,'11111222,11111222,11111222' 
NOS,ioos:station:wmo:bzst2:1,2017-12-01T15:48:00Z,26.0670,-97.1550,15.0,3.5,51.0,4.4,'11111222,11111222,11111222' 
NOS,ioos:station:wmo:bzst2:1,2017-12-01T15:54:00Z,26.0670,-97.1550,15.0,4.1,52.0,4.4,'11111222,11111222,11111222' 
NOS,ioos:station:wmo:bzst2:1,2017-12-01T16:00:00Z,26.0670,-97.1550,15.0,3.6,50.0,4.1,'11111222,11111222,11111222' 
NOS,ioos:station:wmo:bzst2:1,2017-12-01T16:06:00Z,26.0670,-97.1550,15.0,3.5,48.0,4.0,'11111222,11111222,11111222' 
NOS,ioos:station:wmo:bzst2:1,2017-12-01T16:12:00Z,26.0670,-97.1550,15.0,3.4,52.0,3.9,'11111222,11111222,11111222' 
NOS,ioos:station:wmo:bzst2:1,2017-12-01T16:18:00Z,26.0670,-97.1550,15.0,3.1,54.0,3.5,'11111222,11111222,11111222' 
NOS,ioos:station:wmo:bzst2:1,2017-12-01T16:24:00Z,26.0670,-97.1550,15.0,3.4,53.0,3.8,'11111222,11111222,11111222' 
NOS,ioos:station:wmo:bzst2:1,2017-12-01T16:30:00Z,26.0670,-97.1550,15.0,3.4,46.0,3.8,'11111222,11111222,11111222' 
NOS,ioos:station:wmo:bzst2:1,2017-12-01T16:36:00Z,26.0670,-97.1550,15.0,3.3,40.0,3.8,'11111222,11111222,11111222' 
NOS,ioos:station:wmo:bzst2:1,2017-12-01T16:42:00Z,26.0670,-97.1550,15.0,2.6,38.0,3.3,'11111222,11111222,11111222' 
NOS,ioos:station:wmo:bzst2:1,2017-12-01T16:48:00Z,26.0670,-97.1550,15.0,3.0,48.0,3.2,'11111222,11111222,11111222' 
NOS,ioos:station:wmo:bzst2:1,2017-12-01T16:54:00Z,26.0670,-97.1550,15.0,3.0,42.0,3.6,'11111222,11111222,11111222' 
NOS,ioos:station:wmo:bzst2:1,2017-12-01T17:00:00Z,26.0670,-97.1550,15.0,2.5,6.0,3.8,'11111222,11111222,11111222' 
NOS,ioos:station:wmo:bzst2:1,2017-12-01T17:06:00Z,26.0670,-97.1550,15.0,2.6,6.0,3.3,'11111222,11111222,11111222' 
NOS,ioos:station:wmo:bzst2:1,2017-12-01T17:12:00Z,26.0670,-97.1550,15.0,2.6,12.0,3.1,'11111222,11111222,11111222' 
NOS,ioos:station:wmo:bzst2:1,2017-12-01T17:18:00Z,26.0670,-97.1550,15.0,2.9,18.0,3.3,'11111222,11111222,11111222' 
NOS,ioos:station:wmo:bzst2:1,2017-12-01T17:24:00Z,26.0670,-97.1550,15.0,2.4,16.0,3.1,'11111222,11111222,11111222' 
NOS,ioos:station:wmo:bzst2:1,2017-12-01T17:30:00Z,26.0670,-97.1550,15.0,2.3,10.0,3.0,'11111222,11111222,11111222' 
NOS,ioos:station:wmo:bzst2:1,2017-12-01T17:36:00Z,26.0670,-97.1550,15.0,2.5,13.0,3.4,'11111222,11111222,11111222' 
NOS,ioos:station:wmo:bzst2:1,2017-12-01T17:42:00Z,26.0670,-97.1550,15.0,2.1,4.0,3.0,'11111222,11111222,11111222' 
NOS,ioos:station:wmo:bzst2:1,2017-12-01T17:48:00Z,26.0670,-97.1550,15.0,3.0,8.0,3.9,'11111222,11111222,11111222' 
NOS,ioos:station:wmo:bzst2:1,2017-12-01T17:54:00Z,26.0670,-97.1550,15.0,2.7,3.0,3.3,'11111222,11111222,11111222' 
NOS,ioos:station:wmo:bzst2:1,2017-12-01T18:00:00Z,26.0670,-97.1550,15.0,2.5,10.0,3.4,'11111222,11111222,11111222' 
NOS,ioos:station:wmo:bzst2:1,2017-12-01T18:06:00Z,26.0670,-97.1550,15.0,2.5,16.0,3.6,'11111222,11111222,11111222' 
NOS,ioos:station:wmo:bzst2:1,2017-12-01T18:12:00Z,26.0670,-97.1550,15.0,2.6,8.0,3.4,'11111222,11111222,11111222' 
NOS,ioos:station:wmo:bzst2:1,2017-12-01T18:18:00Z,26.0670,-97.1550,15.0,2.5,9.0,2.9,'11111222,11111222,11111222' 
NOS,ioos:station:wmo:bzst2:1,2017-12-01T18:24:00Z,26.0670,-97.1550,15.0,2.6,7.0,3.1,'11111222,11111222,11111222' 
NOS,ioos:station:wmo:bzst2:1,2017-12-01T18:30:00Z,26.0670,-97.1550,15.0,2.5,12.0,3.1,'11111222,11111222,11111222' 
NOS,ioos:station:wmo:bzst2:1,2017-12-01T18:36:00Z,26.0670,-97.1550,15.0,3.3,50.0,3.9,'11111222,11111222,11111222' 
NOS,ioos:station:wmo:bzst2:1,2017-12-01T18:42:00Z,26.0670,-97.1550,15.0,3.5,50.0,4.0,'11111222,11111222,11111222' 
NOS,ioos:station:wmo:bzst2:1,2017-12-01T18:48:00Z,26.0670,-97.1550,15.0,3.3,59.0,3.8,'11111222,11111222,11111222' 
NOS,ioos:station:wmo:bzst2:1,2017-12-01T18:54:00Z,26.0670,-97.1550,15.0,3.3,60.0,3.8,'11111222,11111222,11111222' 
NOS,ioos:station:wmo:bzst2:1,2017-12-01T19:00:00Z,26.0670,-97.1550,15.0,3.1,65.0,3.5,'11111222,11111222,11111222' 
NOS,ioos:station:wmo:bzst2:1,2017-12-01T19:06:00Z,26.0670,-97.1550,15.0,3.7,68.0,3.9,'11111222,11111222,11111222' 
NOS,ioos:station:wmo:bzst2:1,2017-12-01T19:12:00Z,26.0670,-97.1550,15.0,3.6,64.0,3.9,'11111222,11111222,11111222' 
NOS,ioos:station:wmo:bzst2:1,2017-12-01T19:18:00Z,26.0670,-97.1550,15.0,3.6,66.0,4.0,'11111222,11111222,11111222' 
NOS,ioos:station:wmo:bzst2:1,2017-12-01T19:24:00Z,26.0670,-97.1550,15.0,3.3,65.0,3.8,'11111222,11111222,11111222' 
NOS,ioos:station:wmo:bzst2:1,2017-12-01T19:30:00Z,26.0670,-97.1550,15.0,3.6,65.0,4.0,'11111222,11111222,11111222' 
NOS,ioos:station:wmo:bzst2:1,2017-12-01T19:36:00Z,26.0670,-97.1550,15.0,3.8,65.0,4.3,'11111222,11111222,11111222' 
NOS,ioos:station:wmo:bzst2:1,2017-12-01T19:42:00Z,26.0670,-97.1550,15.0,4.1,58.0,4.3,'11111222,11111222,11111222' 
NOS,ioos:station:wmo:bzst2:1,2017-12-01T19:48:00Z,26.0670,-97.1550,15.0,4.0,60.0,4.4,'11111222,11111222,11111222' 
NOS,ioos:station:wmo:bzst2:1,2017-12-01T19:54:00Z,26.0670,-97.1550,15.0,4.3,59.0,4.8,'11111222,11111222,11111222' 
NOS,ioos:station:wmo:bzst2:1,2017-12-01T20:00:00Z,26.0670,-97.1550,15.0,4.0,60.0,4.9,'11111222,11111222,11111222' 
NOS,ioos:station:wmo:bzst2:1,2017-12-01T20:06:00Z,26.0670,-97.1550,15.0,4.1,55.0,4.5,'11111222,11111222,11111222' 
NOS,ioos:station:wmo:bzst2:1,2017-12-01T20:12:00Z,26.0670,-97.1550,15.0,4.3,57.0,4.5,'11111222,11111222,11111222' 
NOS,ioos:station:wmo:bzst2:1,2017-12-01T20:18:00Z,26.0670,-97.1550,15.0,4.3,61.0,4.9,'11111222,11111222,11111222' 
NOS,ioos:station:wmo:bzst2:1,2017-12-01T20:24:00Z,26.0670,-97.1550,15.0,4.1,64.0,4.9,'11111222,11111222,11111222' 
NOS,ioos:station:wmo:bzst2:1,2017-12-01T20:30:00Z,26.0670,-97.1550,15.0,4.4,62.0,4.7,'11111222,11111222,11111222' 
NOS,ioos:station:wmo:bzst2:1,2017-12-01T20:36:00Z,26.0670,-97.1550,15.0,3.6,67.0,4.6,'11111222,11111222,11111222' 
NOS,ioos:station:wmo:bzst2:1,2017-12-01T20:42:00Z,26.0670,-97.1550,15.0,4.5,57.0,5.0,'11111222,11111222,11111222' 